FENGYUN 1C DEB

Satellite information

Favourite Embed

Satellite Type and Status

DEBRISIN ORBIT

Key statistics

Satellite FENGYUN 1C DEB at a glance.

Uptime

9715

Days in orbit

Revolutions

≈ 14.2

Per day

Orbit

SSO

Sun Synchronous Orbit

Inclination

98.6

Latest

Satellite identification and parameters

Extended collection of information and parameters for FENGYUN 1C DEB.

Object identification

Identified? True

Debris? True

Object name: FENGYUN 1C DEB

International designator: 1999-025EQU

Object number (NORAD): 38147

Object ID (CCSDS): 38147

Country: PEOPLES REPUBLIC OF CHINA (PRC)

Current information (Y/N): Y

RCS size: SMALL

Orbital parameters

Period: 101.164 minutes

Inclination: 98.5592 deg

SMA: 7191.907 km

Apoapsis: 849.55 km

Periapsis: 777.994 km

RAAN: 358.0831 deg

Eccentricy: 0.00497476

Argument of periapsis: 309.111 deg

Mean anomaly: 50.5651 deg

Mean motion: 14.2343176 rev/day

Mean motion (dot): 0.00002194 rev/day2

B* drag term: 0.00097237466 1/REarth

Two-line elements (TLE)

Creation date: Dec. 10, 2025, 10:40 a.m.

Reference frame: TEME

Reference center: EARTH

Epoch: Dec. 9, 2025, 6:40 p.m. UTC

TLE line 0: 0 FENGYUN 1C DEB

TLE line 1: 1 38147U 99025EQU 25343.77821103 .00002194 00000-0 97237-3 0 9991

TLE line 2: 2 38147 98.5592 358.0831 0049748 309.1110 50.5651 14.23431760603459

Live tracking on map

Real-time ground track for satellite FENGYUN 1C DEB.

In-orbit conjunctions

A list of the most updated potential collisions computed for object FENGYUN 1C DEB.

Target Orbit TCA Probability of collision Miss distance Type
CZ-6A DEB LEO 2025-01-27 05:19:16 0.0001877693 143.0 (m) DEBRIS
COSMOS 1867 COOLANT LEO 2024-11-10 04:27:53 0.0009134942 381.0 (m) DEBRIS

Associated space launch

Chinese polar orbiting meteorological satellite

FENGYUN 1C DEB was lifted into orbit during the mission ‘Long March 4B | Feng Yun 1C’, on board a Long March 4B space rocket.

The launch took place on May 10, 1999, 1:33 a.m. from Launch Complex 7.

For more information about the launch, click the button.

Launch to space Long March 4B | Feng Yun 1C
Long March 4B | Feng Yun 1C

Agency: N/A

Status: Launch Successful

Launch date: May 10, 1999, 1:33 a.m. UTC

Rocket: Long March 4B

Launch pad: Launch Complex 7

Location: Taiyuan Satellite Launch Center, People's Republic of China

...

Latest news about this satellite

There are no fresh news available about this satellite. Check back as we update our databases every day.


Newsletter sign-up

Weekly statistics, charts and insights to help you stay on top of the space industry.